Wind_Speed
18 18 17 17 17 16 15 15 14 14 13 11 10 9 7 6 5 5 5 5 4 3 3 3 4 5 5 6 7 7 6 5 5 8 8 4 2 3 3 3 7 11 10 8 9 9 10 9 10 11 9 8 6 5 8 7 6 6 6 7 6 6 5 3 5 2 2 2 1 3 2 4 4 1 1 3 8 8 8 6 3 2 2 2 4 4 3 2
19 18 18 18 18 18 17 16 15 14 13 12 10 8 6 6 5 4 4 4 3 3 3 4 4 5 6 7 7 7 7 5 9 10 6 4 5 6 4 4 9 13 10 9 10 10 9 8 11 11 8 6 5 6 8 7 7 7 5 6 6 5 2 1 3 2 1 2 1 2 2 4 4 3 2 4 8 5 8 7 4 4 2 3 3 2 1 1
19 19 19 19 19 18 18 17 16 15 14 13 11 8 6 6 5 4 3 3 3 3 3 4 5 6 7 8 8 7 6 7 10 5 2 3 5 8 6 5 11 13 8 6 7 8 5 7 12 10 7 5 4 7 8 7 8 6 5 6 5 2 3 2 3 3 3 3 3 2 1 5 5 3 3 5 8 6 8 5 3 6 2 3 2 1 1 2
20 20 20 20 20 19 19 18 17 16 14 13 11 8 6 5 4 3 2 2 3 3 3 4 5 6 7 8 8 6 6 9 5 3 3 3 6 9 8 8 12 11 6 3 5 6 4 7 11 9 6 5 5 6 7 8 6 4 5 5 3 3 3 5 5 4 4 4 5 4 2 5 3 3 5 6 7 6 5 4 6 10 7 2 3 2 2 3
20 20 20 20 21 21 20 18 17 16 14 12 11 8 6 4 3 2 2 3 3 3 3 4 5 7 8 8 7 5 6 6 2 5 3 4 8 10 9 11 12 9 5 5 5 6 7 9 10 8 6 5 7 7 7 9 6 4 6 4 3 3 4 3 4 4 4 5 5 5 5 4 1 4 5 5 7 6 5 7 8 10 8 2 2 3 3 3
20 20 20 20 21 21 21 20 18 16 14 11 10 8 5 3 2 2 2 3 3 3 2 4 5 6 7 8 6 5 7 2 4 3 5 6 9 11 11 12 11 8 6 6 6 7 8 9 9 7 5 6 8 7 6 9 6 5 5 4 2 5 5 2 3 3 4 7 7 6 4 3 4 5 3 5 8 8 7 7 9 9 6 2 2 3 3 2
21 20 20 21 21 21 21 21 20 18 14 10 9 7 5 3 2 2 2 3 3 2 2 3 5 5 7 7 4 5 7 2 5 5 6 7 9 11 11 10 8 7 6 5 6 7 8 10 8 6 5 6 7 6 6 7 7 6 3 5 4 4 5 4 3 3 5 7 7 5 4 6 8 4 2 6 9 8 7 6 7 7 3 3 3 3 2 5
21 21 21 21 21 21 21 21 20 19 15 10 8 7 5 2 2 2 3 4 3 3 2 3 4 5 6 5 5 5 3 5 6 8 8 9 9 9 9 7 6 5 5 3 3 5 6 8 6 6 5 5 5 6 6 6 7 7 3 5 4 3 6 5 3 6 6 7 6 6 8 9 6 4 5 10 8 4 5 5 4 3 2 4 4 4 8 6
22 22 22 22 21 21 20 20 20 20 16 11 8 7 5 2 2 3 4 4 4 3 1 2 3 5 6 5 7 4 3 6 6 9 10 10 9 8 6 5 5 4 3 1 1 2 3 4 4 4 2 5 5 5 6 7 5 6 3 3 4 4 5 5 5 8 6 6 6 7 12 9 1 3 8 10 4 3 4 3 2 2 3 4 5 7 7 5
24 23 23 23 22 21 20 20 20 20 17 11 8 7 5 3 3 4 5 5 5 4 2 2 4 5 5 5 8 3 6 5 7 9 9 10 9 8 6 4 4 3 2 3 1 0 1 1 2 1 1 4 5 3 5 4 2 3 3 2 5 4 4 5 6 7 6 6 7 9 11 5 3 4 7 2 2 4 4 2 1 2 2 4 7 7 4 4
25 25 24 24 23 22 21 20 20 20 17 11 8 7 6 4 4 5 6 6 6 5 4 3 4 5 6 7 7 1 7 6 8 9 8 9 9 8 5 3 3 2 2 3 2 3 3 3 2 2 1 4 5 4 3 1 2 1 3 4 6 6 5 6 7 6 6 4 4 8 9 3 3 7 5 3 3 3 4 1 1 1 2 6 8 7 5 5
26 26 26 25 24 23 21 20 20 20 17 12 9 8 7 5 5 7 7 7 7 6 5 4 4 5 5 7 4 4 8 6 8 9 8 9 8 6 4 4 3 2 1 1 3 4 2 2 1 4 1 3 5 4 2 0 2 2 4 6 6 7 6 6 5 3 4 2 2 7 8 7 8 6 1 4 3 0 2 2 2 2 3 6 7 6 5 6
26 26 26 26 25 23 21 20 19 20 16 11 10 10 8 5 6 8 8 8 7 7 6 5 4 4 6 5 2 6 7 6 6 7 8 9 7 5 5 4 4 3 3 2 2 2 1 1 3 3 1 4 3 2 1 2 4 4 6 7 4 7 7 6 3 3 4 1 2 7 6 6 8 3 4 4 2 2 4 3 2 3 4 5 6 6 6 7
27 27 27 26 25 24 22 19 19 19 15 11 10 10 8 5 6 7 8 9 7 7 5 5 4 3 6 2 6 7 7 5 4 6 8 9 7 5 5 5 5 4 3 3 1 0 1 1 3 2 1 4 1 2 4 5 5 5 5 5 5 6 6 8 3 5 5 3 4 8 6 2 6 5 5 3 2 1 3 1 1 2 5 5 6 8 8 8
28 28 27 27 26 24 22 20 19 17 14 11 10 9 8 5 5 7 8 9 7 6 4 4 4 3 6 3 6 6 5 5 7 7 8 9 9 7 6 6 4 4 4 3 2 1 3 4 5 4 3 1 2 5 7 5 6 5 5 5 6 5 5 8 4 2 1 3 6 8 6 1 4 6 5 3 2 0 2 2 1 2 5 6 6 8 9 9
29 29 28 27 26 24 22 20 19 16 13 10 10 9 7 5 3 5 7 7 6 4 3 3 3 4 7 1 6 6 5 6 6 5 7 9 9 6 5 6 4 3 3 3 4 3 4 5 3 3 1 4 6 7 6 5 6 6 6 5 5 6 4 6 7 3 1 1 6 7 6 3 3 5 4 2 1 1 2 2 2 2 5 6 6 7 9 10
29 29 29 27 25 24 22 20 19 14 10 10 9 8 5 4 1 4 5 5 4 3 3 3 2 4 5 1 4 6 6 5 5 4 5 7 7 5 5 6 5 5 5 5 6 6 6 5 2 2 4 5 5 6 6 7 6 6 6 5 4 6 3 3 7 6 2 4 6 6 6 6 1 3 4 3 1 2 3 2 3 3 5 6 6 8 9 10
30 30 30 28 25 24 21 19 18 12 8 8 8 5 4 3 2 4 5 6 4 4 4 2 3 4 4 5 3 4 6 4 3 3 4 6 6 5 5 5 4 6 7 6 7 7 6 5 4 4 5 5 5 7 7 5 5 6 6 5 4 6 6 4 2 4 2 6 7 7 7 8 4 4 4 4 1 3 3 2 2 4 6 6 7 8 9 10
31 31 31 30 26 23 20 18 16 10 5 7 6 2 0 2 4 4 6 6 3 3 2 2 5 4 0 4 2 3 3 0 2 4 5 6 7 7 5 4 4 6 6 5 7 7 4 4 5 5 5 7 8 8 6 1 2 3 4 5 4 5 6 5 2 3 1 6 9 9 7 6 6 5 6 4 1 3 3 3 3 4 6 7 7 8 9 11
33 33 33 31 27 22 19 16 13 6 3 5 4 3 2 0 1 3 4 6 6 5 6 4 6 7 4 1 2 1 2 2 3 5 6 7 7 8 7 6 6 6 6 5 5 5 3 5 6 6 6 7 6 5 3 2 2 3 4 5 5 5 5 4 2 2 0 6 8 8 7 6 7 6 5 5 3 5 5 5 5 5 6 6 8 9 10 11
34 34 34 32 28 22 17 14 9 2 1 3 3 4 1 4 4 3 3 6 5 4 8 7 6 9 7 4 3 3 1 4 5 5 6 6 8 8 7 7 8 7 6 5 1 3 3 6 6 5 3 2 3 3 2 3 5 6 6 6 5 7 6 3 2 1 1 6 7 6 7 9 9 7 5 5 6 7 7 7 7 7 6 7 9 11 11 11
34 35 35 33 29 21 15 11 4 1 1 1 2 2 3 5 4 4 5 6 2 2 7 6 5 7 7 7 5 4 4 5 6 7 7 6 8 8 6 7 9 6 6 5 4 4 6 8 6 4 1 2 3 4 5 7 7 7 6 6 6 5 4 4 5 4 3 5 6 5 7 9 8 7 5 6 7 7 6 7 7 7 8 8 10 11 11 12
34 35 34 32 28 19 13 7 2 1 1 1 2 2 4 4 3 3 5 6 2 2 2 2 4 4 5 5 3 5 7 6 5 6 9 9 8 6 5 7 8 5 5 8 8 6 5 5 3 4 3 5 6 5 7 7 7 8 7 6 6 3 2 6 5 4 4 5 7 5 6 8 7 7 8 7 7 6 6 7 7 7 8 8 9 10 11 13
34 35 33 30 25 19 13 3 3 3 1 2 1 5 3 4 4 4 4 5 1 2 1 1 1 1 1 1 3 7 7 4 4 3 9 10 7 4 6 6 6 6 6 7 8 8 7 0 5 2 4 7 8 7 8 8 7 9 9 7 7 4 5 7 2 1 5 7 8 8 7 8 8 9 8 7 7 8 8 9 9 8 8 9 9 10 11 12
33 33 31 27 23 19 11 2 4 4 1 4 3 4 4 6 4 4 5 4 1 2 3 3 1 2 3 1 3 5 4 4 5 1 6 8 5 5 5 3 4 7 6 6 6 8 8 1 2 5 6 7 8 7 9 9 7 8 10 10 10 8 7 8 6 4 6 7 7 6 7 6 6 8 8 7 8 9 10 10 11 11 10 10 10 10 11 11
32 31 28 24 23 18 6 4 3 3 2 4 3 3 5 7 3 4 4 3 2 3 1 1 0 3 3 1 3 3 4 4 1 1 4 6 4 3 4 4 4 5 2 3 5 6 5 1 3 7 8 9 9 8 9 9 9 7 6 9 10 10 8 9 9 6 7 5 4 3 7 7 3 7 8 7 7 9 10 10 11 11 11 11 11 11 11 11
31 29 24 22 22 15 4 2 4 2 2 2 2 4 7 7 3 5 5 3 3 4 3 3 2 3 4 1 3 3 2 2 3 3 3 4 3 3 5 4 5 4 2 3 4 2 3 4 5 8 9 9 8 8 8 9 10 5 2 4 8 9 10 10 9 8 8 7 3 6 9 8 7 7 5 6 7 9 10 11 12 12 12 13 13 12 13 13
29 25 20 20 18 11 6 3 4 2 2 3 4 6 8 4 4 4 5 1 3 4 2 5 3 2 4 2 3 4 3 2 1 3 2 4 4 3 7 6 5 4 4 5 5 2 1 4 5 7 9 9 9 6 5 9 9 1 5 1 6 7 8 9 9 8 8 9 8 8 8 7 8 6 4 6 9 10 10 12 12 13 13 14 14 14 14 13
27 21 17 18 14 9 8 5 2 2 3 4 6 8 6 3 4 4 3 1 2 2 1 3 3 4 6 2 4 2 3 3 2 3 3 5 4 3 4 4 5 4 4 6 7 1 2 1 1 3 6 6 5 1 1 7 6 2 4 2 3 5 7 7 8 8 8 8 9 10 8 7 7 6 4 5 7 9 9 10 11 12 13 14 14 14 15 13
24 17 14 17 12 8 7 5 4 5 5 6 6 6 3 4 4 4 0 2 1 3 2 2 4 7 8 2 4 6 2 1 5 1 4 4 3 3 1 2 4 5 5 6 9 6 1 3 1 3 5 5 3 4 1 4 2 2 4 5 5 6 6 6 6 7 7 9 10 11 9 7 7 6 3 3 3 5 5 6 7 10 12 14 14 14 15 14
21 13 11 14 12 9 5 3 6 10 9 8 6 3 4 4 3 1 3 2 2 4 3 3 7 8 8 4 4 7 4 4 6 2 3 2 4 5 3 3 4 5 6 6 7 7 6 6 4 4 3 4 3 2 2 2 3 5 6 7 6 6 5 6 7 6 7 9 7 5 5 7 8 5 3 1 1 3 5 5 4 7 11 13 13 14 15 14
17 8 8 13 13 12 8 5 9 12 12 8 4 4 4 2 1 3 4 1 1 5 3 3 8 9 6 5 7 8 4 4 8 4 2 1 3 2 2 3 2 4 5 4 3 3 6 6 5 4 4 5 7 5 4 4 6 7 7 7 7 6 5 6 7 6 8 8 3 1 2 6 8 8 7 5 3 3 4 4 4 4 7 11 14 14 14 14
14 5 6 11 13 14 12 10 10 14 15 7 4 4 4 1 3 3 4 2 1 3 2 1 5 8 6 3 6 7 4 4 9 7 4 3 4 1 0 2 4 6 5 3 3 4 4 3 6 7 5 5 7 7 5 5 7 8 8 7 7 7 7 7 7 6 8 7 2 2 2 6 8 7 4 3 3 3 3 4 4 3 4 6 11 14 13 14
11 2 6 11 13 15 17 14 11 15 14 5 6 3 0 2 3 1 3 5 3 2 2 2 1 4 7 5 3 4 2 4 9 9 6 3 4 1 2 3 4 5 6 5 5 6 6 3 5 5 3 5 8 7 5 5 6 9 8 7 8 7 7 7 6 6 7 6 2 4 3 6 5 1 2 1 1 1 2 4 4 3 4 4 7 11 13 14
7 2 6 11 11 15 19 16 13 15 12 6 5 0 2 4 3 1 3 4 3 3 2 2 1 1 5 4 2 2 1 3 7 6 5 3 2 3 2 4 7 5 4 5 3 2 7 5 3 3 2 3 4 3 4 7 7 5 6 8 8 7 7 6 5 5 6 7 6 5 5 5 4 2 3 4 4 4 4 4 5 6 6 6 6 9 11 12
4 3 5 7 9 15 19 16 15 15 9 5 1 3 4 4 3 3 3 3 4 5 3 0 1 2 2 3 2 3 3 1 4 2 1 1 2 3 3 3 6 7 4 4 3 2 6 4 6 6 3 2 1 2 2 6 5 2 5 8 5 4 7 7 5 2 3 8 8 7 7 7 7 5 3 3 5 5 6 6 6 5 5 7 8 8 10 12
5 2 3 7 13 18 16 14 15 12 7 4 2 4 3 4 4 3 4 3 2 4 5 1 2 3 2 0 1 4 0 1 2 3 1 1 1 3 4 2 3 7 7 4 3 2 5 4 4 6 4 4 2 1 1 2 5 3 4 4 1 2 6 6 6 4 5 9 8 8 10 9 8 4 3 4 5 4 4 3 4 4 5 8 8 9 10 11
4 0 1 9 18 18 13 13 13 7 4 1 5 4 2 3 5 4 4 3 2 3 4 3 3 3 3 3 2 4 4 2 2 3 2 2 1 4 5 2 2 6 8 6 3 3 5 6 4 4 3 3 3 4 2 1 3 5 4 3 2 4 6 5 6 7 8 9 7 9 12 9 7 6 3 3 4 3 3 2 2 4 5 5 7 8 10 11
3 2 2 11 20 15 10 11 8 4 1 3 5 4 3 5 6 5 4 3 3 4 3 3 3 2 2 5 4 3 4 4 3 2 2 2 1 2 3 2 2 5 8 7 4 3 4 4 1 2 2 2 3 6 6 3 1 3 4 4 5 4 5 5 5 6 7 8 7 9 10 7 5 5 3 3 3 3 3 2 3 3 2 3 4 5 8 9
3 1 3 13 20 12 7 7 3 1 2 4 4 4 3 4 5 5 4 4 3 4 3 3 4 3 3 4 3 3 4 4 4 3 2 2 2 2 3 2 5 7 8 6 4 1 1 1 2 1 2 4 5 5 5 4 2 2 4 5 6 5 5 5 6 7 7 8 7 8 9 7 3 1 2 4 3 2 4 4 4 4 4 4 4 4 5 7
3 1 4 16 19 9 5 2 2 3 3 4 4 5 4 2 3 5 5 3 3 3 4 4 4 4 4 4 3 4 5 5 4 4 2 2 2 1 3 4 6 9 8 6 4 3 2 3 6 6 5 7 7 2 2 4 4 5 5 5 6 6 6 7 9 9 8 9 9 8 9 7 2 1 2 4 2 1 3 4 4 4 5 5 5 5 5 6
2 2 5 17 18 9 5 2 4 2 3 4 3 4 3 3 2 4 4 3 3 3 2 3 4 4 4 4 4 5 6 5 5 4 2 2 2 1 2 4 6 7 7 5 2 3 4 5 7 9 8 9 8 2 2 3 6 7 7 7 7 7 8 8 8 8 7 9 9 9 10 8 2 1 4 3 2 2 2 3 5 5 4 5 5 6 5 6
3 3 5 14 14 7 3 4 4 2 5 4 2 3 3 3 3 3 3 4 3 2 2 3 4 4 4 4 5 5 6 5 4 4 3 3 3 2 2 3 4 5 5 3 1 2 3 5 6 8 7 8 9 5 3 3 6 7 7 8 8 9 9 9 8 7 6 8 8 7 10 7 1 2 3 3 3 3 3 3 5 6 6 6 7 6 6 6
3 2 3 13 13 5 2 4 4 3 5 3 3 5 3 3 5 5 4 5 5 3 3 3 3 4 4 4 5 6 6 4 3 3 4 5 2 2 0 3 2 3 2 1 0 1 2 3 3 6 6 5 7 7 6 6 6 7 7 7 8 10 11 10 8 7 7 11 11 9 10 8 2 4 3 4 4 6 5 5 6 7 7 8 7 7 6 5
1 1 2 10 13 6 2 3 3 3 5 3 4 4 2 3 5 5 4 5 5 4 4 3 3 4 4 5 5 6 5 4 4 4 4 6 3 1 2 3 4 4 2 1 1 1 1 2 3 4 6 6 5 3 2 2 3 5 6 6 7 9 11 9 7 8 9 12 13 11 10 10 7 6 7 6 8 9 8 8 8 7 7 8 8 7 6 5
1 1 2 4 7 7 4 3 3 2 3 2 2 3 2 2 4 3 3 3 5 5 4 4 4 4 5 6 7 6 5 4 4 5 6 8 6 1 3 5 6 5 1 2 3 3 2 3 6 8 8 8 7 3 1 4 5 6 6 6 7 7 8 8 7 8 9 9 10 11 11 14 15 13 11 11 11 10 10 12 11 9 8 8 8 7 6 5
2 2 3 2 2 4 4 3 4 3 2 1 1 2 3 2 2 2 3 3 4 5 4 2 4 5 6 7 7 6 6 6 7 8 9 9 7 5 6 7 6 3 1 1 2 2 2 4 7 10 12 12 13 9 4 5 9 11 10 9 9 8 8 9 10 10 9 8 9 10 11 13 14 13 13 13 12 11 12 13 12 10 9 8 7 7 7 6
2 1 2 3 1 2 3 4 4 3 2 1 1 1 2 3 3 2 2 2 3 5 4 1 3 6 7 8 7 7 8 9 8 9 8 9 9 8 7 6 3 1 2 2 2 1 2 4 5 7 10 12 12 11 8 7 10 11 12 12 11 10 11 13 14 14 12 10 10 11 13 14 12 12 14 14 13 14 14 13 11 10 9 8 7 7 8 7
2 2 2 2 1 3 3 2 2 2 3 2 1 2 2 3 4 3 3 3 3 4 4 3 4 7 8 8 7 7 8 9 9 9 9 10 11 10 8 6 3 4 3 3 2 1 2 3 4 7 10 11 11 10 8 8 10 11 12 14 13 14 15 15 16 17 16 16 16 16 18 16 13 13 15 15 15 14 12 11 10 9 8 7 7 7 8 8
2 2 2 0 2 3 2 1 2 1 3 1 0 3 2 2 4 3 3 4 4 3 4 6 7 8 9 8 8 8 9 10 11 11 11 11 10 9 7 5 2 3 3 3 2 2 2 2 4 6 8 10 10 9 8 9 10 12 13 15 15 15 16 16 16 16 16 17 18 17 17 15 12 12 12 12 11 10 8 8 8 8 8 8 8 8 7 6
3 3 3 2 2 2 0 1 1 2 2 1 0 2 1 1 3 3 2 2 3 4 5 7 8 8 8 8 8 8 9 11 12 12 12 11 11 9 5 5 5 4 4 5 4 3 4 3 5 5 7 8 8 8 9 10 11 13 16 18 17 16 14 14 14 14 14 14 14 13 12 11 9 8 8 8 7 6 7 7 7 7 8 8 8 7 5 4
2 1 2 4 0 1 1 1 1 1 1 2 2 1 0 2 3 3 2 1 1 3 4 6 8 8 8 8 8 9 11 12 13 13 12 12 12 11 10 10 11 10 8 7 6 4 4 4 4 5 6 7 8 8 7 9 10 10 9 10 12 12 12 13 12 13 14 12 10 10 9 8 7 6 6 7 7 7 7 6 6 7 7 7 7 6 4 3
Wind_Direction
16 13 9 3 358 353 348 343 338 335 333 328 323 317 312 304 302 306 310 309 310 309 303 305 312 325 326 324 326 321 318 304 249 235 239 241 211 189 156 144 171 168 166 163 169 170 166 177 165 172 183 173 201 177 172 197 193 203 215 226 231 225 227 205 218 223 348 314 123 144 179 252 271 264 240 258 244 243 264 258 238 257 276 331 9 17 349 347
15 13 11 7 2 358 353 348 343 339 335 333 329 325 316 305 301 298 299 295 296 295 294 299 310 325 322 325 331 319 316 281 244 244 237 238 236 206 174 140 163 163 166 175 179 178 173 167 161 176 186 169 182 167 170 184 193 210 214 225 232 223 187 121 227 220 256 287 313 174 186 256 274 302 336 285 271 263 272 256 222 243 182 127 65 54 19 47
13 12 11 8 4 0 357 353 349 346 341 338 337 333 320 308 303 290 284 271 272 279 282 295 310 321 322 328 329 320 315 265 242 236 172 212 218 192 180 159 163 166 171 188 187 190 182 159 168 182 185 172 172 176 181 178 192 214 222 227 220 182 142 170 232 229 248 293 289 251 186 255 263 281 281 288 290 284 275 277 298 304 3 109 99 84 82 89
13 13 13 9 5 2 1 358 354 352 350 346 343 340 331 316 302 284 269 246 245 252 273 296 311 321 324 330 329 326 296 257 233 108 117 166 168 173 177 163 168 172 172 187 186 199 195 164 173 187 190 173 160 178 182 172 189 199 216 241 126 139 187 187 221 239 256 283 283 288 269 253 256 257 266 284 287 270 271 352 345 323 344 36 138 161 167 125
15 14 14 12 8 4 3 1 359 355 353 353 348 346 341 326 304 278 245 232 227 231 264 293 312 320 321 327 328 316 274 253 101 97 148 158 156 164 166 166 173 170 171 181 167 181 185 172 174 189 198 164 159 182 174 170 200 201 211 276 83 174 231 174 218 252 268 281 271 263 258 267 283 242 255 277 285 294 329 360 331 314 330 313 175 184 178 147
15 15 14 13 11 7 4 1 359 355 352 352 349 348 345 334 304 264 234 219 211 219 256 293 311 317 318 322 324 288 267 289 76 125 149 148 152 157 162 167 172 165 173 179 167 180 177 178 180 185 190 163 171 181 156 165 209 226 198 234 206 217 253 210 227 255 269 267 250 250 274 297 274 254 263 284 285 301 331 338 312 311 312 264 180 204 196 157
14 15 13 13 12 9 5 0 359 357 352 349 349 346 341 332 288 247 222 208 199 214 261 298 306 315 323 318 300 253 254 34 95 147 144 143 145 152 164 166 171 170 185 191 185 188 174 186 192 181 177 161 176 168 146 170 213 248 194 183 221 238 247 248 245 254 263 262 256 273 291 265 264 280 332 283 284 306 329 329 311 311 277 197 171 202 57 29
13 13 12 12 10 9 5 0 359 359 356 349 346 341 334 325 269 223 206 201 196 219 262 306 315 324 332 311 270 236 217 75 114 161 150 145 145 153 162 163 176 181 203 214 190 191 182 191 183 188 188 146 169 156 156 188 204 238 220 166 216 236 240 256 261 255 255 259 262 265 266 258 267 321 300 279 289 328 330 330 320 300 227 179 152 101 66 49
13 12 11 10 8 8 5 1 358 358 358 350 344 338 328 308 236 199 196 196 205 225 263 313 327 333 333 298 266 241 115 84 143 170 159 156 153 156 162 167 186 195 197 136 124 220 212 195 161 211 220 127 167 157 181 212 189 209 214 174 220 228 243 266 257 251 249 251 258 251 257 256 224 309 268 261 292 358 321 329 341 287 209 171 114 86 91 123
11 11 10 8 7 6 4 1 357 355 356 351 344 334 320 286 224 199 199 200 211 226 239 298 340 339 323 283 265 244 106 114 161 172 172 170 165 165 178 183 186 205 170 112 145 218 15 73 92 282 288 144 178 159 199 231 93 173 225 230 243 249 248 265 257 252 255 249 248 251 259 253 115 256 252 206 41 342 303 293 356 284 194 137 104 101 114 117
8 9 9 8 6 5 3 360 357 353 351 349 339 326 315 281 226 202 203 207 216 230 241 286 330 328 309 277 272 92 113 140 165 176 184 179 179 182 184 190 195 208 159 126 114 75 39 52 73 263 225 150 173 175 201 294 29 195 255 241 227 241 234 240 251 245 247 241 232 249 254 230 177 230 250 31 23 324 301 272 137 215 153 114 116 131 128 103
7 6 6 7 5 3 2 358 355 351 348 342 332 324 308 275 229 211 212 217 223 232 244 273 309 326 299 264 271 93 125 148 160 173 185 184 193 203 200 204 218 235 222 173 115 87 29 50 248 257 120 154 182 176 166 131 288 240 248 244 206 214 216 208 233 225 231 235 173 234 231 199 194 213 273 11 355 336 252 241 167 174 141 122 129 138 131 116
6 5 3 3 3 2 1 358 353 349 346 335 328 329 313 276 236 223 217 221 228 239 251 274 301 315 277 259 98 118 150 155 159 169 180 191 204 219 215 214 226 246 277 271 123 91 359 36 278 305 72 232 204 111 138 174 245 232 228 250 216 208 197 170 188 192 201 181 166 227 236 182 174 164 60 31 351 196 210 221 193 164 128 127 125 115 115 112
5 4 2 360 359 359 359 358 352 347 343 332 325 330 325 290 241 228 221 223 230 240 253 280 297 278 257 265 102 150 172 160 190 192 188 197 207 212 212 218 230 242 261 266 245 242 253 209 267 266 171 264 352 121 211 194 214 226 214 232 236 225 166 138 161 204 193 143 177 232 260 168 138 122 87 61 14 233 210 188 208 159 125 129 121 114 111 106
4 2 0 358 356 355 357 356 351 346 342 334 325 326 328 307 252 229 226 225 228 237 256 284 277 250 252 228 133 169 189 193 208 203 200 202 208 206 194 200 210 225 233 236 230 191 201 217 246 233 162 199 225 212 220 204 204 218 218 208 219 231 152 138 158 224 233 128 182 232 262 243 128 119 100 79 48 97 201 146 168 144 132 139 129 124 117 114
4 1 359 357 352 350 353 354 350 345 341 335 329 329 329 319 272 230 225 221 222 222 234 257 226 246 275 200 129 167 189 196 189 183 199 203 215 206 162 169 168 176 186 182 191 180 204 224 247 274 223 197 212 219 218 213 202 202 229 218 196 219 181 149 158 160 341 163 195 228 266 286 122 118 105 89 66 151 201 155 145 142 135 143 135 128 123 120
2 360 358 356 352 347 348 351 349 342 338 336 337 342 341 336 283 205 197 197 205 191 219 262 222 252 272 142 148 176 160 153 143 143 177 186 207 195 166 182 170 160 156 155 180 189 206 213 203 224 227 219 214 218 217 217 205 188 221 230 198 225 240 167 154 148 204 241 220 219 250 272 244 135 138 103 62 223 220 196 167 156 143 144 137 130 127 123
360 358 356 354 352 345 344 349 347 339 336 336 340 355 358 17 92 154 156 156 162 170 201 241 225 248 224 182 183 137 121 125 141 154 158 164 184 186 195 209 178 175 177 173 184 198 204 195 214 222 203 207 204 211 220 222 218 197 205 221 205 219 240 244 169 120 201 246 240 227 235 248 243 202 168 112 77 239 225 202 185 160 148 143 139 135 129 123
357 356 354 353 353 345 341 346 345 336 335 337 338 349 13 95 118 152 163 167 190 220 241 182 201 262 302 166 144 88 116 267 221 186 159 156 168 175 191 200 189 198 202 193 182 192 213 193 210 229 205 201 200 214 239 300 271 224 214 240 236 216 227 245 283 55 302 261 248 242 248 242 235 216 172 137 160 228 218 191 195 173 150 144 140 136 130 124
355 355 352 351 351 345 339 343 344 333 336 344 322 245 225 235 169 171 185 223 249 266 283 269 233 268 297 147 73 57 200 226 211 173 150 153 170 178 182 192 206 213 222 220 174 166 231 230 215 225 214 195 193 222 270 335 256 240 233 238 245 246 246 235 221 93 207 268 253 243 256 250 242 231 172 156 196 217 217 204 204 189 159 152 142 134 129 122
353 353 351 350 349 345 338 341 349 332 351 10 296 251 314 359 340 356 329 270 246 247 270 277 272 272 281 301 343 347 275 209 195 162 145 161 185 193 179 193 216 212 211 228 187 143 219 244 229 222 225 177 177 209 227 227 222 228 232 231 231 237 247 246 227 189 194 258 253 226 245 245 234 234 187 177 216 223 223 216 208 188 160 153 144 136 133 126
352 351 350 348 347 345 339 341 4 62 99 88 286 287 49 34 358 337 314 289 257 225 262 264 265 271 274 277 285 298 275 229 200 174 159 173 198 204 172 190 222 212 181 198 222 200 213 240 228 190 162 163 181 199 215 222 223 227 230 240 245 230 248 253 225 216 207 247 255 223 244 250 224 221 213 203 220 221 218 217 205 186 170 160 151 144 141 138
352 351 350 347 347 349 342 345 71 63 57 229 300 50 66 31 340 274 260 284 291 152 255 259 258 261 246 249 233 223 233 231 219 173 161 187 204 208 195 196 217 221 188 202 219 222 221 223 170 134 159 201 202 200 215 222 222 231 233 239 246 229 269 255 198 170 202 244 276 276 263 260 227 213 216 206 208 198 193 203 196 187 181 167 158 155 151 149
351 351 349 347 350 351 343 354 118 37 35 204 60 62 39 351 322 268 248 278 297 109 74 43 324 330 334 294 191 210 222 230 252 145 153 196 198 179 216 216 218 226 210 210 226 249 261 116 98 147 203 218 221 203 212 226 222 224 232 247 260 253 251 264 261 177 235 231 250 267 268 259 234 224 218 182 182 192 189 194 192 186 179 163 158 160 158 157
351 351 350 348 351 351 345 125 117 28 119 161 90 51 357 339 312 254 251 262 156 107 122 133 125 52 38 16 170 211 229 222 247 164 153 209 208 171 209 218 230 233 204 203 234 254 265 49 122 226 218 223 236 222 216 229 237 226 221 233 260 269 255 262 266 252 259 237 210 235 267 265 224 224 228 180 178 197 190 193 196 185 177 167 164 165 164 161
351 352 350 348 348 349 351 139 76 2 169 138 59 356 338 332 284 207 256 248 112 49 63 138 130 53 40 153 151 198 215 188 201 122 168 212 223 222 230 180 211 261 228 212 254 256 255 218 220 242 229 223 235 238 222 220 246 250 215 214 240 262 260 261 258 238 263 268 161 194 271 283 242 229 232 202 202 207 191 197 201 188 184 182 175 171 169 165
352 353 350 349 350 354 13 98 360 324 172 89 351 312 333 324 215 183 255 216 104 9 359 35 34 29 6 25 175 220 207 109 117 132 172 206 195 225 239 195 199 245 208 226 262 231 225 234 222 230 233 229 231 236 210 203 241 264 92 196 229 247 250 251 253 243 261 275 236 230 254 272 272 257 230 201 227 229 206 208 205 194 193 190 182 176 175 172
351 353 353 352 357 11 26 2 344 6 49 5 302 309 327 306 184 207 262 168 66 337 348 32 27 326 340 47 196 257 319 349 199 117 102 197 198 215 233 236 241 219 174 229 258 108 131 253 230 225 230 228 233 239 187 198 238 290 74 237 240 246 255 254 255 252 263 273 264 248 238 250 267 258 191 192 239 244 224 221 213 202 197 191 186 180 178 176
352 354 357 358 5 21 24 32 35 28 7 320 303 318 314 221 191 240 260 88 35 342 23 12 3 328 329 122 142 323 308 305 356 80 130 183 218 256 250 264 272 243 186 234 265 341 60 321 319 266 244 237 245 314 144 216 244 71 105 216 229 233 251 252 257 264 268 266 266 260 241 245 272 265 208 204 246 252 234 228 221 206 196 190 187 182 179 177
353 354 2 9 15 10 10 62 48 345 328 319 322 325 262 194 223 249 116 60 2 16 8 332 351 343 338 142 113 15 346 23 33 102 176 167 201 227 291 334 266 250 221 227 258 271 183 119 60 270 263 289 346 53 56 242 249 121 178 214 212 219 238 245 254 268 270 259 260 262 251 253 276 276 250 218 251 273 259 239 224 208 196 190 186 183 181 180
355 355 12 19 24 15 5 51 12 348 336 327 320 287 214 207 268 293 63 57 322 2 358 1 9 358 1 38 40 12 24 55 23 306 206 176 195 199 206 213 219 241 240 227 239 247 217 195 206 207 217 266 259 172 141 183 204 210 222 231 228 225 231 245 245 243 255 261 262 258 245 252 262 263 266 261 227 256 268 261 237 211 198 190 186 185 184 184
356 359 24 25 28 26 12 347 346 346 344 330 287 244 228 226 14 44 53 172 269 6 12 9 4 357 1 33 31 6 354 28 15 359 355 298 238 214 232 253 268 250 249 239 228 247 234 214 196 173 173 223 239 221 174 175 207 224 232 236 237 235 231 241 243 232 246 260 259 144 226 250 258 263 269 280 281 258 260 269 270 246 212 195 190 188 185 185
357 8 35 26 25 21 1 338 333 340 346 331 240 244 259 284 53 51 33 51 40 6 7 346 2 6 9 36 28 357 322 9 12 11 8 291 244 225 138 355 330 279 270 289 281 270 246 182 183 196 180 190 230 237 213 200 208 219 231 232 232 238 240 244 247 244 252 260 223 141 254 260 258 269 278 301 329 319 283 268 271 289 268 220 198 191 188 187
357 38 42 23 18 10 354 343 336 339 341 304 238 251 297 67 75 85 41 54 52 356 356 346 347 38 46 60 28 358 346 10 9 7 0 294 236 227 130 71 8 296 275 280 278 272 265 232 188 197 159 165 212 247 282 282 239 224 233 239 239 245 249 253 256 258 267 275 227 168 221 264 265 338 73 80 10 302 265 258 250 250 257 248 212 195 191 190
0 87 37 22 15 360 348 339 334 337 331 277 246 275 86 78 85 86 37 39 22 7 15 11 314 82 77 86 91 79 181 334 7 7 357 344 324 343 360 39 27 359 296 271 280 278 267 264 121 106 89 153 204 259 292 280 259 232 236 241 243 249 254 263 279 294 298 291 270 228 235 267 281 263 213 232 252 241 239 239 239 239 229 226 219 203 197 195
25 118 30 21 5 349 343 335 335 337 315 261 246 78 82 57 48 52 30 3 1 359 336 346 360 342 73 105 98 100 170 264 2 338 273 38 343 355 20 40 31 20 358 293 286 289 267 256 113 125 150 112 347 308 241 258 264 202 223 238 249 268 263 262 269 303 302 276 268 257 256 263 270 261 213 230 263 245 231 228 230 240 228 218 217 211 205 201
42 116 33 19 358 345 338 334 334 328 290 266 61 78 86 57 39 37 23 358 353 336 320 346 22 341 353 31 51 45 26 237 343 307 254 181 228 18 24 61 52 27 18 337 282 333 304 271 150 168 178 107 63 269 156 275 281 250 233 248 273 259 257 260 262 253 252 262 263 258 262 266 269 262 161 188 242 236 226 225 211 211 214 218 218 216 215 208
20 235 78 18 355 341 333 336 332 308 270 71 91 88 76 77 53 33 18 1 335 314 329 15 19 343 341 329 344 11 339 301 322 314 297 252 191 31 10 2 45 16 5 341 293 353 318 269 196 170 194 133 146 218 183 114 288 279 287 303 259 243 240 233 249 258 257 261 265 262 262 262 263 263 235 229 255 259 247 243 236 217 204 216 222 218 216 209
341 246 114 7 349 342 341 338 321 274 237 97 107 101 82 87 68 37 12 1 343 332 353 25 6 353 357 338 334 356 343 327 315 294 276 263 227 43 13 345 327 339 347 334 308 360 340 284 207 87 3 313 230 233 232 199 244 294 293 266 242 254 264 245 240 255 262 263 268 274 268 259 257 258 267 284 291 292 285 279 275 266 231 234 240 227 217 208
316 249 82 358 348 354 350 326 301 257 84 79 82 95 100 92 77 55 20 359 356 355 12 23 355 347 358 340 332 354 338 315 307 286 257 261 228 141 71 17 328 331 330 306 272 284 3 250 244 272 339 294 254 239 253 245 226 265 279 261 248 255 266 263 252 244 253 261 267 276 272 268 273 225 255 299 307 306 307 300 284 287 284 271 267 257 234 212
291 150 46 353 351 353 319 313 63 52 88 89 76 89 82 38 58 66 47 21 27 26 17 21 8 356 353 335 338 352 325 304 302 289 263 254 238 171 63 15 341 342 326 286 256 267 259 226 245 256 256 256 250 231 262 265 247 246 255 255 254 260 259 258 255 247 247 256 261 266 267 276 304 155 265 297 298 281 299 302 295 290 287 285 277 266 253 229
308 74 7 347 351 340 304 87 87 26 81 83 66 73 45 348 10 50 46 32 43 41 14 26 14 359 4 349 343 347 330 313 307 305 304 305 289 268 49 4 338 338 328 294 277 342 309 263 254 259 257 260 264 225 143 243 254 252 254 255 255 255 250 248 252 256 259 266 272 268 264 276 333 175 261 265 246 269 290 297 297 297 300 300 291 279 261 243
30 55 359 349 351 321 298 94 108 81 78 81 80 79 42 8 20 28 23 14 24 22 360 28 14 357 20 7 335 333 337 328 312 315 314 307 326 57 57 17 342 324 322 295 283 8 311 267 257 264 266 266 257 230 182 204 231 240 243 242 245 246 249 256 263 269 269 266 270 264 259 264 103 113 263 243 225 256 254 267 290 300 305 297 290 289 274 250
37 51 10 4 4 321 269 80 93 97 91 104 110 92 76 47 29 15 25 26 18 357 353 24 22 4 10 349 323 328 338 328 297 311 313 312 350 110 31 357 347 314 317 286 318 34 306 271 260 265 267 257 240 221 204 195 206 236 245 230 233 242 248 258 264 263 257 253 254 257 262 262 166 142 208 238 260 267 259 267 282 289 294 291 288 289 281 262
334 153 59 21 25 33 59 47 40 94 105 111 96 76 73 89 54 22 27 40 31 3 348 5 2 347 349 335 321 324 329 314 300 313 313 308 309 183 258 310 306 298 288 195 181 137 253 246 224 245 254 259 260 221 202 218 207 229 241 232 235 242 243 248 252 248 247 251 253 253 260 268 259 223 226 251 275 277 279 287 287 282 284 287 288 286 279 265
318 79 56 40 46 56 78 55 9 53 96 105 100 60 14 80 93 47 15 38 44 16 351 358 345 329 343 343 330 324 323 309 299 304 299 299 307 307 279 287 296 307 316 208 212 201 234 233 221 237 249 264 280 287 7 338 301 262 247 234 235 246 252 253 251 248 250 256 256 249 251 268 276 272 269 277 281 283 290 293 290 288 287 286 285 282 277 264
349 34 18 25 76 70 85 72 30 38 59 348 11 53 19 30 93 62 22 35 38 7 345 9 2 348 353 347 333 322 319 311 301 299 298 298 303 298 285 290 304 328 62 177 215 217 260 255 236 238 246 260 276 280 278 277 271 271 272 260 250 256 265 260 254 258 266 265 258 252 252 264 278 285 290 294 295 293 292 292 296 302 299 290 282 276 268 258
17 64 18 328 328 56 62 44 29 52 76 39 37 70 39 36 36 27 28 22 10 1 348 349 16 3 352 339 329 318 315 314 307 304 306 304 303 301 296 293 291 150 164 170 124 100 266 268 265 259 260 266 273 278 273 257 255 260 264 263 258 249 247 248 250 258 265 261 259 269 274 275 282 289 293 297 298 293 292 296 303 301 291 284 277 272 270 264
58 102 72 314 335 55 55 26 355 77 76 52 86 80 43 39 40 25 8 339 335 12 4 330 344 348 336 327 320 310 313 315 307 306 311 308 304 304 300 287 227 154 173 191 144 112 257 267 287 288 283 281 277 275 275 269 267 266 263 264 261 250 243 243 247 252 255 257 261 269 275 278 282 288 293 295 291 287 286 293 297 293 292 297 291 282 280 276
24 47 44 235 100 73 73 105 247 190 103 49 106 85 45 23 34 14 360 344 332 9 6 337 338 335 325 324 314 307 318 319 307 303 308 306 301 300 300 292 259 174 198 225 205 182 206 272 302 300 290 283 278 276 272 269 271 273 272 266 262 259 255 249 248 248 248 253 259 264 270 276 280 286 291 293 290 284 278 282 291 299 307 309 303 296 291 284
13 13 329 281 103 68 318 128 265 245 123 91 40 96 98 32 32 350 348 16 344 353 356 339 337 331 319 318 315 317 327 319 302 296 297 295 291 289 284 278 288 290 271 270 264 210 204 275 300 296 287 282 282 283 278 277 276 271 267 261 256 256 257 253 250 246 244 249 255 258 263 269 277 289 296 300 300 290 280 285 293 299 303 301 299 302 303 297
20 42 299 292 145 92 294 150 214 264 86 55 38 94 94 36 33 333 336 68 19 356 356 337 334 331 322 325 329 327 322 310 298 295 292 284 278 277 270 263 267 274 274 280 287 265 251 277 291 286 283 282 287 296 296 290 280 269 260 254 251 253 257 258 255 247 243 244 249 254 258 265 280 297 301 301 302 294 292 297 298 296 296 294 294 303 311 322
Height
814 813 811 810 809 807 806 804 803 801 800 799 798 798 797 797 797 797 797 796 796 796 796 796 795 795 795 794 793 793 792 792 792 791 790 788 788 789 790 790 790 791 792 792 793 793 792 792 792 793 792 792 791 790 793 791 790 794 797 801 799 794 789 786 787 786 787 787 785 786 786 789 788 782 778 778 779 778 777 775 774 775 775 775 775 776 776 776
815 813 811 810 808 807 805 804 803 801 800 798 797 797 797 797 796 796 796 796 796 796 795 795 795 795 794 794 793 792 792 791 791 788 787 787 788 789 789 790 790 791 791 792 791 790 790 790 790 791 789 790 791 790 793 791 791 794 794 798 793 786 784 783 784 784 786 788 786 785 786 788 788 784 780 784 782 777 779 775 772 774 775 776 776 777 777 776
815 813 812 810 808 807 805 804 802 801 799 798 797 796 796 796 796 795 795 795 795 795 795 795 795 794 794 793 792 792 791 790 788 785 785 786 787 788 789 790 790 791 791 791 790 789 788 788 789 789 788 790 791 791 793 792 792 790 791 795 788 781 784 784 785 785 785 786 787 785 785 787 785 782 782 785 784 780 780 776 774 775 774 776 777 777 777 776
815 814 812 810 809 807 805 804 802 800 799 798 797 796 796 795 795 795 795 795 795 795 795 795 794 794 793 792 792 791 790 789 785 783 785 786 786 788 789 789 790 791 791 791 791 790 789 788 788 788 788 790 791 791 792 791 791 790 790 790 783 783 787 785 784 785 784 785 787 786 787 787 783 781 783 785 786 782 776 774 777 777 774 776 778 778 777 777
815 814 812 811 809 807 805 804 802 800 799 797 796 795 795 795 795 795 794 795 794 794 794 794 794 793 793 792 792 790 790 790 785 783 785 786 786 787 788 789 790 791 791 791 790 790 789 788 788 788 788 790 792 792 790 789 789 790 789 785 783 786 788 784 783 784 785 785 788 788 788 785 781 782 783 784 788 782 773 773 775 775 774 774 776 777 777 777
815 814 812 811 809 807 805 804 802 800 799 797 796 795 795 795 794 794 794 794 794 794 794 794 793 793 792 791 791 790 790 790 785 783 786 786 786 787 788 789 790 791 791 790 790 789 788 787 788 789 788 789 792 790 789 788 789 791 788 786 785 786 787 783 783 785 786 787 788 787 784 783 783 784 781 783 785 777 772 773 774 773 773 773 774 776 777 778
815 814 812 810 809 807 805 803 802 800 799 797 796 795 795 794 794 794 794 794 794 794 794 793 793 792 792 791 791 789 787 785 783 784 786 786 787 787 788 789 790 791 790 789 789 787 787 787 787 787 787 789 790 788 789 789 790 791 788 787 786 785 786 783 783 785 786 788 786 783 784 785 786 784 781 783 779 773 772 773 774 773 772 772 774 776 779 783
815 814 812 810 808 807 805 803 801 800 798 797 796 795 794 794 794 794 794 794 794 794 794 793 793 792 791 791 789 786 783 783 784 785 786 786 787 788 789 789 790 790 790 788 787 785 785 786 785 785 786 788 788 788 790 791 791 791 787 786 786 786 785 782 783 785 785 786 784 784 787 785 783 784 784 782 776 773 774 774 774 773 773 773 774 779 785 788
815 813 811 810 808 806 805 803 801 799 798 797 796 795 794 794 793 793 793 793 793 794 793 793 792 792 791 790 787 784 783 783 785 785 786 787 787 788 789 789 790 790 789 788 787 785 784 784 785 784 785 787 787 788 789 790 791 788 786 786 786 786 784 783 784 784 784 784 783 786 787 782 781 785 784 778 775 775 774 775 774 773 774 774 776 784 788 789
815 813 811 810 808 806 804 802 800 799 798 796 795 794 794 793 793 793 793 793 793 793 793 793 792 791 791 789 786 784 784 784 785 785 786 787 787 788 789 789 789 788 788 788 787 785 784 785 785 783 784 786 787 788 788 789 788 786 786 786 786 785 783 784 784 782 782 782 782 786 785 781 782 787 783 775 775 776 775 776 775 774 775 776 779 785 787 788
815 813 811 809 807 806 803 802 800 798 797 796 795 794 793 793 793 793 792 793 792 793 793 792 792 791 791 788 785 783 783 784 785 785 786 787 788 788 789 789 789 788 787 786 787 786 786 785 784 784 786 786 788 789 788 787 787 786 788 788 786 785 784 784 783 782 782 782 782 783 784 782 784 786 781 775 776 777 776 777 776 776 776 778 782 785 785 786
814 812 811 809 807 805 803 801 799 797 796 795 794 793 792 792 792 792 792 792 792 792 792 792 792 791 790 788 783 781 783 784 785 785 786 787 788 788 788 789 789 789 787 786 786 787 788 787 785 786 787 786 787 791 789 786 787 788 789 789 786 785 786 784 782 781 782 783 781 782 786 785 784 782 777 776 777 776 777 777 777 777 777 779 781 783 784 785
814 812 810 808 807 804 803 800 798 797 795 794 793 792 791 791 791 791 791 791 792 792 792 792 792 791 791 786 780 781 783 784 784 785 786 787 788 787 788 789 789 789 789 787 787 788 789 788 786 786 785 786 787 790 788 786 789 789 787 787 786 786 786 781 781 782 782 784 780 783 789 783 778 777 775 778 778 777 778 777 777 777 778 779 781 783 785 786
813 811 810 808 806 804 802 800 798 796 794 793 792 791 790 789 790 790 790 791 791 791 791 792 791 792 791 784 779 781 782 783 784 784 785 786 787 787 787 788 788 789 789 788 788 789 789 788 787 786 786 786 786 788 788 788 789 788 788 788 785 786 785 779 781 782 782 784 779 785 789 778 773 775 775 778 777 777 777 777 778 778 779 781 782 785 786 788
813 811 809 807 805 803 801 799 797 795 793 792 791 790 789 789 789 789 790 790 790 791 791 791 791 790 788 781 778 781 782 783 783 783 784 785 785 785 786 787 788 788 788 789 789 789 789 788 787 786 787 787 787 790 790 788 786 786 792 792 785 783 782 780 781 780 782 782 778 785 787 776 772 774 774 776 777 777 778 779 781 780 781 782 783 786 787 790
812 810 808 806 804 802 801 799 796 794 792 791 790 789 789 788 788 788 789 789 790 791 791 791 790 790 787 780 778 780 781 781 781 782 783 784 784 783 784 787 787 788 788 788 788 789 788 787 787 786 787 788 789 789 788 790 789 786 789 789 785 783 781 781 781 778 780 781 778 782 784 776 772 773 774 776 776 778 780 781 782 782 782 782 784 786 788 791
812 809 807 805 803 801 799 798 796 793 791 790 790 789 788 788 787 788 788 789 790 790 791 790 788 789 785 778 779 779 778 779 780 782 782 783 784 783 784 785 785 786 786 787 788 788 787 787 788 788 787 787 785 786 793 798 793 788 786 784 784 783 782 782 781 778 778 780 780 780 781 778 773 773 775 777 778 778 780 781 782 783 783 783 785 787 789 791
811 809 806 804 802 800 798 797 795 793 791 790 789 789 788 787 787 788 788 789 789 790 791 789 789 791 785 777 778 778 777 780 780 781 782 782 783 784 784 783 783 784 785 787 787 786 786 786 787 787 787 788 786 787 795 795 787 786 787 786 786 785 785 783 780 779 779 780 780 779 781 777 773 772 775 778 779 779 779 781 782 782 784 784 785 788 790 792
811 808 805 803 801 799 797 796 794 792 791 789 789 789 788 787 787 788 788 788 788 789 789 787 787 788 784 777 776 777 778 779 779 780 780 781 782 783 783 783 782 783 786 788 786 785 785 786 789 791 789 788 785 784 785 784 781 783 784 784 785 785 784 780 778 778 779 783 780 778 778 776 774 773 774 779 780 780 781 781 782 782 783 785 786 788 790 793
809 807 804 801 799 797 795 794 793 791 790 789 789 788 787 787 786 786 786 785 783 783 783 782 781 780 779 777 776 777 778 778 778 778 779 780 781 781 782 783 783 785 787 787 785 784 785 790 791 788 785 781 782 781 781 783 784 784 785 785 785 785 783 777 778 779 779 785 780 775 777 776 775 773 772 778 779 780 781 782 782 781 783 786 787 790 792 795
808 806 803 800 798 795 794 793 792 791 790 789 788 787 786 787 787 788 786 781 778 779 780 779 779 779 778 777 778 778 778 778 776 776 779 779 779 782 783 783 787 788 785 784 785 784 788 794 788 781 779 779 782 784 785 787 786 786 786 786 785 785 782 775 778 779 778 785 780 773 779 778 774 773 772 776 779 779 779 781 783 782 784 786 787 791 793 796
807 804 801 799 796 794 792 791 791 790 790 789 788 786 786 788 790 790 789 784 778 777 779 778 779 780 778 778 779 779 781 780 777 775 777 779 779 781 782 783 787 785 782 785 789 790 793 792 782 777 779 782 785 785 787 787 787 787 784 786 786 780 779 777 776 777 779 784 779 773 780 776 769 771 772 774 776 777 778 779 781 782 785 787 788 792 793 795
807 803 800 797 794 792 791 790 790 790 789 789 787 786 787 789 790 789 789 786 780 777 777 778 779 779 778 779 779 779 781 780 778 775 775 779 779 779 780 783 785 783 783 786 788 792 792 783 776 778 781 785 787 786 788 788 787 786 782 786 784 776 784 784 775 777 780 781 778 775 779 774 767 770 772 773 774 776 779 780 780 782 785 787 787 790 792 794
805 802 799 796 793 792 789 789 790 789 789 789 788 788 789 790 789 789 788 784 781 778 776 777 777 778 779 778 778 780 780 778 777 775 775 777 778 778 780 780 783 785 784 783 784 788 784 775 775 781 783 784 786 786 788 788 786 783 780 784 781 774 783 784 776 780 780 778 778 779 784 776 766 770 770 770 775 776 779 780 781 783 783 786 788 789 791 792
804 801 798 794 792 791 788 789 789 789 789 788 789 789 789 789 788 788 788 785 784 778 775 777 777 777 778 778 779 778 778 777 776 774 774 775 776 779 780 779 782 785 782 782 786 787 781 775 778 782 783 783 785 785 783 785 784 780 777 778 778 775 779 781 779 784 786 784 777 780 795 784 763 767 769 768 775 775 776 779 780 782 783 786 789 789 790 792
804 800 797 794 792 789 788 788 788 789 788 787 790 789 789 789 787 788 788 786 787 782 778 778 778 779 778 778 778 777 781 780 774 773 775 776 775 777 781 780 782 783 780 781 785 783 778 776 778 781 782 782 784 783 778 779 784 780 770 770 775 776 780 782 781 786 791 785 775 778 796 790 770 767 766 765 771 771 773 777 777 778 781 783 786 788 790 791
803 800 797 794 791 789 788 787 788 789 787 788 790 788 789 788 786 789 788 791 795 788 781 779 778 781 778 777 776 779 787 783 774 776 775 776 776 776 781 781 781 783 779 784 789 782 777 779 781 781 781 782 784 781 774 776 783 779 768 769 775 777 780 782 780 785 782 775 774 775 784 792 783 769 761 763 770 769 771 775 774 775 778 779 782 785 787 789
802 799 797 794 791 790 789 789 789 788 788 790 788 788 789 786 788 788 790 806 807 788 783 782 777 779 776 775 776 778 782 778 779 781 774 776 778 777 781 779 778 780 778 787 793 781 776 781 782 781 783 782 778 772 769 774 780 776 771 773 775 776 779 778 778 780 775 777 786 777 776 794 789 765 759 767 771 770 769 769 770 771 774 777 779 783 785 787
802 799 797 794 792 791 790 790 790 789 790 789 788 789 787 786 789 786 790 810 806 786 786 785 779 780 776 775 778 777 776 776 780 781 775 777 777 776 781 777 776 780 779 784 786 778 778 781 780 781 783 778 772 769 770 775 777 773 773 776 775 778 779 779 781 779 778 789 796 781 775 791 788 764 761 771 773 769 766 763 763 766 770 775 777 781 783 785
801 799 797 795 792 792 791 791 791 791 790 788 788 788 786 787 789 790 802 811 801 790 788 784 784 785 779 778 781 779 778 778 778 778 777 779 778 776 779 777 778 781 780 782 782 777 776 780 782 782 781 775 773 776 776 776 776 774 776 777 779 781 779 782 782 781 791 798 790 776 771 785 791 771 759 767 769 764 761 760 760 762 766 772 776 779 781 782
800 799 797 795 794 793 792 791 791 791 789 788 788 785 787 787 784 796 813 807 798 794 788 787 790 787 784 787 788 784 782 781 779 780 780 779 779 779 781 782 781 782 784 783 780 775 775 781 781 777 778 777 777 779 779 777 776 776 776 777 783 787 786 790 787 790 807 802 780 773 772 783 793 775 758 759 759 759 761 760 760 761 764 770 773 776 778 780
800 799 797 796 795 794 793 792 792 791 789 787 787 784 787 790 793 805 809 800 803 804 797 799 797 791 789 789 793 794 789 787 783 783 785 785 784 783 785 785 783 789 792 783 780 779 775 774 774 775 776 777 778 779 780 780 778 778 777 780 792 797 799 804 799 798 804 790 773 775 780 786 785 767 755 755 754 755 758 758 760 761 763 766 770 773 775 777
799 798 797 796 795 794 794 793 791 790 788 787 786 783 784 795 808 811 803 801 808 804 799 803 799 795 793 791 801 804 795 792 789 786 788 788 787 786 787 785 783 790 792 785 785 786 779 772 772 776 777 775 777 779 781 781 779 779 778 782 795 801 807 813 805 798 794 782 772 776 785 788 777 760 752 753 755 756 757 758 760 762 763 764 766 770 773 774
798 797 797 796 794 795 793 792 791 789 788 786 784 784 792 805 811 808 803 804 804 797 796 799 797 799 799 800 810 809 801 799 794 791 791 788 788 789 788 788 786 787 788 787 788 786 789 786 776 775 777 775 775 774 775 776 774 774 769 774 787 791 800 808 802 797 794 784 778 782 789 785 774 765 757 754 757 757 758 759 760 763 765 764 764 767 771 773
797 797 797 795 795 795 792 791 790 788 787 785 782 787 800 811 809 805 806 804 800 798 797 795 795 800 803 803 805 805 807 806 798 798 799 796 799 798 793 793 791 789 791 794 790 786 793 790 774 774 775 773 776 773 771 775 777 773 767 775 784 779 784 795 796 795 796 793 788 784 782 770 759 757 753 753 757 755 758 759 759 763 763 764 766 766 769 772
797 796 796 796 796 794 792 791 789 788 787 782 785 796 804 809 807 806 807 803 801 801 798 797 798 801 804 803 801 801 803 804 800 801 803 803 805 802 798 798 796 794 795 797 793 791 796 789 775 776 777 773 777 775 771 778 782 780 779 782 778 769 775 791 799 797 800 804 792 779 774 763 755 754 752 755 757 754 756 758 758 761 762 764 766 766 767 769
796 797 796 796 796 793 792 791 788 789 785 781 793 804 804 805 806 804 804 802 802 801 799 802 804 804 806 803 801 802 800 800 801 802 803 805 805 803 800 799 796 796 796 797 795 793 796 792 778 776 780 777 776 775 773 775 777 782 787 780 773 773 776 787 801 802 801 803 788 773 775 771 766 764 756 756 759 755 754 755 757 760 762 763 764 765 766 766
797 797 796 796 796 793 791 790 789 787 783 787 803 809 803 804 805 803 803 803 802 800 801 805 806 805 806 804 804 802 800 802 803 804 805 804 805 806 804 802 799 797 796 797 797 795 795 796 783 774 779 778 773 777 782 780 775 778 781 774 779 793 792 791 803 805 801 802 790 776 771 769 767 763 754 754 758 756 754 754 756 757 758 761 761 762 764 764
796 795 795 797 796 793 791 791 788 785 785 793 805 807 804 805 805 804 804 803 802 801 803 808 807 804 805 806 806 803 802 804 802 804 807 805 807 809 808 808 804 799 798 797 799 799 798 803 796 781 778 779 776 779 786 787 781 778 778 775 778 788 791 792 799 801 801 801 794 783 774 766 760 754 752 755 755 755 756 756 756 755 755 758 759 760 762 763
797 794 796 797 795 793 792 789 787 786 791 799 803 804 804 805 804 804 804 804 805 804 806 808 806 805 807 805 805 804 803 802 799 802 805 803 806 809 807 808 806 801 798 795 797 800 801 810 809 791 784 788 786 782 783 788 790 790 791 787 784 782 783 787 788 786 793 798 795 792 784 766 750 746 750 753 752 754 756 756 756 756 755 756 757 758 759 761
796 795 797 797 794 794 791 790 793 794 797 802 804 805 807 806 805 805 804 804 805 805 806 807 806 807 809 806 804 805 803 801 798 798 800 800 804 809 808 807 806 802 799 796 797 800 800 805 806 798 793 793 787 779 780 785 788 792 793 791 791 788 787 795 795 779 777 785 786 789 788 767 746 745 750 750 751 753 754 755 756 756 755 756 756 757 758 759
795 798 800 797 795 793 790 794 800 799 799 804 807 808 809 809 807 806 805 803 805 805 804 806 808 808 809 809 807 806 806 803 799 798 800 801 802 807 808 807 806 803 802 801 801 804 803 801 802 799 791 785 779 777 781 785 783 785 789 787 787 788 788 798 802 788 782 785 780 782 787 769 748 747 750 749 751 753 754 756 756 755 755 756 756 756 757 758
798 801 801 798 796 793 792 799 803 801 803 808 809 809 810 809 807 806 806 806 807 807 806 808 811 810 811 812 810 808 807 806 803 802 803 802 802 806 808 808 808 805 805 806 805 808 808 804 804 801 790 780 777 776 780 783 785 788 789 786 786 786 783 785 788 788 793 797 791 792 792 772 753 752 752 751 753 754 755 756 756 756 756 756 756 756 756 758
803 803 801 799 797 792 795 804 805 805 809 809 808 811 811 810 811 809 810 811 811 810 810 811 812 812 813 813 810 808 809 810 807 803 803 804 805 807 807 807 808 806 807 810 811 814 814 810 809 809 803 796 788 785 786 785 787 788 784 781 782 782 782 783 783 786 794 793 789 793 790 769 754 754 753 753 755 754 754 754 754 756 756 756 755 754 755 757
804 804 802 800 798 797 801 808 807 807 811 811 812 814 813 812 814 813 813 814 814 813 814 813 812 813 813 812 811 808 808 812 811 805 804 804 802 804 806 807 806 805 807 809 810 814 817 817 815 813 811 806 799 797 797 791 786 784 781 781 782 781 784 787 787 790 792 785 780 785 783 766 753 751 752 752 754 755 753 752 752 752 754 755 754 753 754 755
804 805 806 803 801 802 807 811 809 808 812 813 815 817 815 814 815 814 813 815 815 815 816 815 813 813 814 814 815 813 809 810 811 809 808 805 802 803 805 804 803 804 806 809 809 811 814 815 814 813 810 803 798 799 800 796 793 789 785 784 784 783 783 785 788 789 784 782 781 778 777 772 761 754 752 751 751 754 754 752 751 750 751 753 753 753 753 754
807 811 813 811 808 807 808 811 811 812 813 815 818 820 818 816 815 814 813 815 816 816 817 817 816 818 820 820 820 818 813 810 811 811 809 806 803 804 804 802 803 805 807 809 809 811 815 813 807 807 807 799 794 794 797 801 801 795 791 789 787 788 789 790 790 783 778 784 784 771 768 773 767 759 757 753 752 754 754 751 750 750 751 751 751 752 752 753
812 816 818 818 815 813 813 815 816 816 816 816 818 821 820 818 818 819 817 815 815 816 818 819 819 821 822 823 823 821 817 815 814 811 810 808 806 805 805 803 804 806 808 809 810 814 820 816 804 801 802 797 792 790 792 796 796 793 792 790 789 792 795 794 791 783 780 786 782 769 767 771 768 762 760 757 755 755 753 750 750 750 750 750 750 750 750 750
814 817 819 819 819 818 820 822 821 818 817 817 818 821 821 820 821 822 820 818 818 817 820 823 822 821 821 821 823 823 821 820 819 815 812 813 811 809 810 808 804 804 806 808 811 814 817 813 804 802 801 797 792 788 788 792 793 791 788 786 785 786 787 787 786 782 781 781 775 770 772 771 766 763 760 756 754 752 749 749 750 749 748 748 749 749 749 749
818 819 820 818 817 820 822 822 820 817 817 818 818 822 823 822 823 823 820 822 824 821 822 824 823 823 822 821 822 822 820 821 822 818 815 817 816 812 813 812 808 806 806 807 808 812 814 809 803 803 803 797 789 786 787 790 791 790 787 782 780 780 780 781 780 778 779 778 772 772 776 772 763 758 756 754 752 749 749 750 750 748 748 748 749 748 748 749
824 824 824 818 817 822 822 820 819 816 816 817 817 822 824 822 824 825 821 822 825 825 825 826 825 824 821 820 822 821 820 821 822 818 815 816 816 813 813 813 811 810 808 804 803 807 811 808 802 804 807 798 787 786 788 787 788 790 786 780 777 778 777 775 773 772 773 774 774 777 779 772 760 755 755 753 750 750 751 750 750 749 748 749 749 748 747 748
825 825 825 820 819 822 821 819 818 816 818 821 821 823 825 823 824 825 824 822 823 824 825 826 826 826 823 821 822 822 820 820 818 814 812 811 809 808 809 808 808 810 809 807 805 803 804 805 804 806 808 799 788 788 790 791 793 788 776 770 770 771 771 769 767 766 766 770 776 777 771 763 756 754 756 754 752 751 751 749 750 750 749 749 749 748 747 748